Вернуться в каталог

IRIDIUM 33 DEB

АктивенPO
NORAD 34492·DEBRIS·🇺🇸 United States

Запущен Sep 14, 1997 с Baikonur Cosmodrome

Loading…

Ближайшие Пролёты (ближайшие 24 часа)

TLE

СвежийSource: Space-Track

Эпоха: Sep 14, 2026, 09:10 UTC

1 34492U 97051GH  26257.38211053  .00009370  00000-0  30185-2 0  9997
2 34492  86.4706 222.7281 0181115  68.1738  83.0866 14.30203169889936

Отслеживайте IRIDIUM 33 DEB в реальном времени с AllMySat

Download on the App Store